Weather Roundup
Issued by NWS

Home | Current Version | Previous Version | Graphics & Text | Print | Product List | Glossary Off
Versions: 1 2 3 4 5 6 7 8 9 10 11 12 13 14 15 16 17 18 19 20 21 22 23 24 25 26 27 28 29 30 31 32 33 34 35 36 37 38 39 40 41 42 43 44 45 46 47 48 49 50

000
NZUS93 KARX 300759
HRRWXR

CURRENT HOURLY OBSERVATIONS ACROSS
MUCH OF THE UPPER MISSISSIPPI VALLEY
NATIONAL WEATHER SERVICE LA CROSSE WI
300 AM CDT WED JUL 30 2014


...SOUTHEAST MINNESOTA...


CITY           SKY/WX    TMP DP  RH WIND       PRES   REMARKS
ROCHESTER      CLEAR     59  56  89 W8        30.07F
ROCHESTER/MAYO FAIR      61  58  89 W5        30.06F
WINONA         CLEAR     59  55  88 NW5       30.04S
AUSTIN         CLEAR     55  54  94 CALM      30.07S
ALBERT LEA     CLEAR     57  55  94 CALM      30.09S
DODGE CENTER   PTCLDY    57  55  94 W6        30.07S
PRESTON        CLEAR     58  58 100 W5        30.06F
OWATONNA       CLEAR     57  54  88 SW6       30.08S
FARIBAULT      CLEAR     57  52  82 CALM      30.07F
$$

...ELSEWHERE IN MINNESOTA...


CITY           SKY/WX    TMP DP  RH WIND       PRES   REMARKS
MINNEAPOLIS    PTCLDY    63  56  78 NW3       30.06S
INTNL FALLS    CLEAR     50  49  96 CALM      30.05S
DULUTH         CLEAR     56  53  90 CALM      30.06S FOG
RED WING       CLEAR     57  55  94 CALM      30.04F
REDWOOD FALLS  CLEAR     58  54  86 W8        30.10S
MANKATO        CLEAR     61  52  72 W6        30.08S
WORTHINGTON    CLEAR     54  48  82 W3        30.15S
FAIRMONT       CLEAR     57  52  82 W5        30.11R
$$

...SOUTHWEST WISCONSIN...


CITY           SKY/WX    TMP DP  RH WIND       PRES   REMARKS
LA CROSSE      PTCLDY    61  58  90 CALM      30.03S
PRAIRIE DU CHI CLEAR     61  56  83 CALM      30.04S
BOSCOBEL       CLEAR     59  57  93 CALM      30.04R
LONE ROCK      NOT AVBL
PLATTEVILLE    CLOUDY    61  59  93 SW5       30.05S
FORT MC COY    FOG       53  52  97 CALM      30.05S VSB 3/4
CAMP DOUGLAS   FOG       54  54 100 NW2       30.03S VSB 1/2
VIROQUA        FAIR      57  57 100 CALM      30.05S
WIS DELLS      PTCLDY    56  54  92 W3        30.02S
$$

...ELSEWHERE IN WISCONSIN...


CITY           SKY/WX    TMP DP  RH WIND       PRES   REMARKS
MILWAUKEE      PTCLDY    60  55  83 W6        29.99F
MADISON        CLOUDY    60  56  86 CALM      30.02S
GREEN BAY      CLOUDY    58  57  97 N5        29.99S
EAU CLAIRE     NOT AVBL
BLACK RVR FLS  CLOUDY    55  55 100 CALM      30.03S FOG
MEDFORD        PTCLDY    52  52  99 NW3       30.04S FOG
WAUSAU         CLEAR     55  54  96 NW6       30.02R
WIS RAPIDS     CLEAR     56  55  97 NW6       30.04S
MARSHFIELD     CLEAR     55  54  96 NW6       30.03S
RICE LAKE      CLEAR     56  55  95 CALM      30.07S FOG
$$

...NORTHEAST IOWA...


CITY           SKY/WX    TMP DP  RH WIND       PRES   REMARKS
WATERLOO       CLEAR     57  55  93 CALM      30.06S
DUBUQUE        CLOUDY    58  56  93 CALM      30.04F
DECORAH        PTCLDY    61  57  88 CALM      30.05F
MASON CITY     CLEAR     55  53  93 CALM      30.10S
CHARLES CITY   CLEAR     57  54  88 NW5       30.07F
OELWEIN        CLEAR     57  55  94 NW3       30.07S
$$

...ELSEWHERE IN IOWA...


CITY           SKY/WX    TMP DP  RH WIND       PRES   REMARKS
DES MOINES     CLEAR     62  56  80 NW3       30.09F
IOWA CITY      CLEAR     61  57  87 CALM      30.08S
FORT DODGE     CLEAR     55  52  88 CALM      30.12S
MARSHALLTOWN   CLEAR     56  54  93 W6        30.08S
CEDAR RAPIDS   CLEAR     56  50  80 W5        30.06S
$$

...NORTHERN ILLINOIS...


CITY           SKY/WX    TMP DP  RH WIND       PRES   REMARKS
CHICAGO-OHARE  PTCLDY    60  53  77 W6        30.00S
DUPAGE         CLEAR     58  55  90 CALM      30.01S
CHICAGO-MIDWAY PTCLDY    63  56  78 W3        30.00F
MOLINE         CLEAR     59  56  89 SW3       30.04F
ROCKFORD       CLOUDY    60  54  80 CALM      30.04F
STERLING       MOCLDY    61  57  88 CALM      30.04R
PEORIA         PTCLDY    64  57  78 CALM      30.05S
$$

NOTE: "FAIR" INDICATES FEW OR NO CLOUDS BELOW 12,000 FEET WITH NO
SIGNIFICANT WEATHER AND/OR OBSTRUCTIONS TO VISIBILITY. WIND
SPEEDS ARE IN MILES-PER-HOUR.



USA.gov is the U.S. government's official web portal to all federal, state and local government web resources and services.